Regional Weather Roundup
Issued by NWS

Home | Current Version | Previous Version | Text Only | Print | Product List | Glossary On
Versions: 1 2 3 4 5 6 7 8 9 10 11 12 13 14 15 16 17 18 19 20 21 22 23 24 25 26 27 28 29 30 31 32 33 34 35 36 37 38 39 40 41 42 43 44 45 46 47 48 49 50
000
ASHW40 PHFO 240943
RWRHI

WEATHER ROUNDUP FOR HAWAII
NATIONAL WEATHER SERVICE HONOLULU HI
1100 PM HST WED APR 23 2014

THIS IS AN AUTOMATED REPORT THAT HAS NOT BEEN QUALITY CONTROLLED.

NOTE..."FAIR" INDICATES FEW OR NO CLOUDS BELOW 12,000 FEET WITH NO
SIGNIFICANT WEATHER AND/OR OBSTRUCTIONS TO VISIBILITY.

* - THESE SITES REPORT LIMITED FIELDS

HIZ001>004-241000-
KAUAI-NIIHAU-

CITY           SKY/WX    TMP DP  RH WIND       PRES   REMARKS
LIHUE APT      MOCLDY    73  68  84 NE18      30.16S
PORT ALLEN*      N/A     73 N/A N/A NE16G22     N/A
POIPU*           N/A     73 N/A N/A NE10G21     N/A
PRINCEVILLE*   NOT AVBL
KOKOLE POINT*    N/A     72  63  73 MISG        N/A
MOLOAA DAIRY*  NOT AVBL
WAIMEA HTS*      N/A     73  59  60 E7G16       N/A
PUU OPAE*        N/A     64  59  82 CALM        N/A
PUU LUA*       NOT AVBL
MAKAHA RIDGE*  NOT AVBL
$$

HIZ005>011-241000-
OAHU-

CITY           SKY/WX    TMP DP  RH WIND       PRES   REMARKS
HONOLULU       PTCLDY    75  65  70 NE16G23   30.11S
KALAELOA       MOCLDY    74  65  73 VRB3      30.12S
KANEOHE MCB    PTCLDY   N/A N/A N/A E9G20     30.14R
WHEELER FIELD  FAIR      68  64  88 E5        30.13S
BELLOWS*       NOT AVBL
KAHUKU*          N/A    N/A N/A N/A NE9G20      N/A
WHEELER*       NOT AVBL
WAIANAE HARBOR NOT AVBL
DILLINGHAM*      N/A     70  68  94 SE2         N/A
KAHUKU TRN*      N/A     70  66  88 E12G23      N/A
KAWAILOA*      NOT AVBL
KII*             N/A     75  68  78 E20G25      N/A
MAKUA RANGE*     N/A     73  70  88 NE9G21      N/A
OAHU FOREST NW   N/A     63  63 100 N14G37      N/A
SCHOFIELD BRK*   N/A     68  64  88 MISG        N/A
SCHOFIELD S*     N/A     66 N/A N/A CALM        N/A
WAIANAE VLY*     N/A     70  63  78 S8G26       N/A
KUAOKALA*        N/A     70  64  83 NE17G24     N/A
HONOULIUULI*   NOT AVBL
MOKUOLOE IS*     N/A    N/A N/A N/A MISG        N/A
PALEHUA*         N/A     77  66  69 CALM        N/A
WAIAWA PHB*    NOT AVBL
$$

HIZ012>013-241000-
MOLOKAI-

CITY           SKY/WX    TMP DP  RH WIND       PRES   REMARKS
MOLOKAI AIRPT  PTCLDY    72  69  90 NE12G17   30.13S
KALAUPAPA      NOT AVBL
MAKAPULAPAI*     N/A     73  66  78 E21G30      N/A
MOLOKAI 1*       N/A     64  57  77 E6G22       N/A
PUU ALII*        N/A     55  54  95 E3G15       N/A
$$

HIZ016-241000-
KAHOOLAWE-

CITY           SKY/WX    TMP DP  RH WIND       PRES   REMARKS
KAHOOLAWE*       N/A     68 N/A N/A E21G32      N/A
HAKIOAWA*        N/A     71  62  71 MISG      30.21F
HONOKANAIA*      N/A     76  62  60 NE12G30     N/A
KANELOA*       NOT AVBL
KEALIALALO*      N/A    N/A N/A N/A E14G35      N/A
LUA MAKIKA*    NOT AVBL
$$

HIZ014>015-241000-
LANAI-

CITY           SKY/WX    TMP DP  RH WIND       PRES   REMARKS
LANAI CITY     FAIR      68  64  86 NE10      30.15S
LANAI 1*         N/A     66  66 100 NE17G32     N/A
$$

HIZ017>028-241000-
MAUI-

CITY           SKY/WX    TMP DP  RH WIND       PRES   REMARKS
KAHULUI        CLEAR     74  66  76 NE20      30.11S
KAPALUA-W MAUI NOT AVBL
HANA AIRPORT   NOT AVBL
HANA*            N/A     75 N/A N/A E8          N/A
HALEAKALA SUMM   N/A     45   0  15 E26         N/A
MAALAEA BAY*   NOT AVBL
HALEAKALA*     NOT AVBL
KAUPO GAP*       N/A     70  37  30 NW18G37     N/A
KULA 1*          N/A     48  32  53 E5          N/A
$$

HIZ023>026-241000-
BIG ISLAND OF HAWAII COAST AND LOWER SLOPES-

CITY           SKY/WX    TMP DP  RH WIND       PRES   REMARKS
KAILUA KONA    MOCLDY    75  64  69 E6        30.04F
HILO           MOCLDY    71  68  90 W5        30.14S
HONOKAA*       NOT AVBL
KAWAIHAE MWT*    N/A     81 N/A N/A VRB5G30     N/A
KAWAIHAE*        N/A     77 N/A N/A SE18G26     N/A
SOUTH POINT*     N/A     70 N/A N/A NE25G36     N/A
UPOLU AIRPORT*   N/A    N/A N/A N/A E17G24      N/A
KAMUELA*       SUNNY     61  55  82 N22       30.15F
HAKALAU*         N/A     39  39 100 W3          N/A
KALOKO-HONOKO*   N/A     73  63  68 NE3       30.04S
PALI 2*        NOT AVBL
KEALAKOMO*       N/A    N/A N/A N/A NE14G22     N/A
KAUPULEHU*       N/A     68  57  68 E7          N/A
KAPAPALA*        N/A     63  56  79 NW3G12      N/A
LOWER KAHUKU*  NOT AVBL
PUHE CS*       NOT AVBL
PUHO CS*         N/A     73  61  65 E3          N/A
PTA KEAMUKU*     N/A     57  54  88 SE3G12      N/A
WAIKOLOA*        N/A     70  55  60 E10G16      N/A
$$

HIZ027>028-241000-
BIG ISLAND OF HAWAII INTERIOR AND SUMMMITS-

CITY           SKY/WX    TMP DP  RH WIND       PRES   REMARKS
BRADSHAW FIELD CLEAR     49  44  83 SE3       30.38F
MK VISITOR CEN NOT AVBL
MAUNA KEA*       N/A     34 -20   9 E17         N/A  WCI  23
MAUNA LOA*       N/A     45 -18   6 MISG        N/A
MAUNA LOA 1*     N/A    N/A N/A N/A MISG        N/A
PTA KIPUKA*      N/A     50  50 100 SW2         N/A
PTA RANGE 17*    N/A     54  48  82 E16G25      N/A
PTA WEST*        N/A     73  64  73 E12G23      N/A
NENE CABIN*    NOT AVBL
AHUMOA*          N/A     46  45  93 CALM        N/A
PTA PORTABLE*  NOT AVBL
PUU MALI*      NOT AVBL
$$

HIC003-241000-
NORTHWEST ISLANDS-

CITY           SKY/WX    TMP DP  RH WIND       PRES   REMARKS
MIDWAY ISLAND  CLEAR     73  70  88 S9        30.21R
MIDWAY NOS*    NOT AVBL
FRENCH FRIGATE NOT AVBL
$$

PHZ110>124-180-241000-
BUOY REPORTS

STATION/POSITION TIME  TEMP    WIND        PRES    WAVE   SWELL
                       AIR SEA DIR/SP/G            HT/PER HT/DIR
                 (UTC) (F)     (DEG/KT/KT) (MB)    (FT/S) (FT/D)
BUOY 51001       NOT AVBL
BUOY 51101       0900   73 73   60/ 19/ 23 1022.2S   8/14   5/340
BUOY 51100       0800   72 74   70/ 17/ 19 1021.8
BUOY 51003       0900   77 78   60/ 16/ 19 1018.5R   8/15   7
BUOY 51004       0900   78 79   70/ 19/ 25 1014.7F
BARBERS PT BUOY  NOT AVBL
WAIMEA BAY BUOY  0900      76                N/A     7/15   3/320
KAILUA BAY BUOY  0900      75                N/A     8/ 9   2/ 20
LANAI BUOY       0900      77                N/A     3/15   2/230
BARBERS PT 2     0900      76                N/A     5/15   5/310
PAUWELA MAUI     NOT AVBL
HILO             0900      77                N/A     8/ 9
KANEOHE BAY BUOY 0900      75                N/A     7/ 8   2/ 40
HANALEI KAUAI    0900      76                N/A     8/14   3/320
KAHULUI HARBOR   0900   75 77   40/ 15/ 19 1019.6S
HONOLULU HARBOR  0900   75      40/  4/ 10 1019.6F
KILO NALU        NOT AVBL
HILO HARBOR      0900   73      CALM  /  4 1019.8F
MOKUOLOE         0900   75 77   70/ 14/ 17 1020.6R
NAWILIWILI       0900      76                N/A
WHOTS BUOY       NOT AVBL
BUOY 51028       NOT AVBL
$$

......................KEY........................................
  SKY/WX - SKY CONDITIONS/PRESENT WEATHER
  TMP    - TEMPERATURE IN FAHRENHEIT
  DWPT   - DEWPOINT IN FAHRENHEIT
  RH     - RELATIVE HUMIDITY IN PERCENT
  WIND   - DIRECTION AND SPEED /MPH FOR ISLANDS...KTS FOR BUOYS/
  PRES   - MEAN SEA LEVEL PRESSURE IN INCHES OF HG
  VSB    - VISIBILITY IN MILES
  HX     - HEAT INDEX
  WCI    - WIND CHILL INDEX
  VRB    - VARIABLE WIND DIRECTION
  N/A    - NOT AVAILABLE



USA.gov is the U.S. government's official web portal to all federal, state and local government web resources and services.